EW0352 Weather Reports


time (UTC)temp
F
wind
direction
speed
knots
gust
knots
rain 1hr
in
rain 24hr
in
rain mn
in
humidity
%
barometer
mb
20240304055646 39 233 2.6 5.2 0.00 0.00 0.00 65 1010.4
20240304055146 39 248 3.5 5.2 0.00 0.00 0.00 65 1010.5
20240304054644 40 235 2.6 7.0 0.00 0.00 0.00 65 1010.6
20240304053145 40 228 2.6 6.1 0.00 0.00 0.00 66 1009.9
20240304052646 40 244 1.7 6.1 0.00 0.00 0.00 66 1009.9
20240304052147 40 253 1.7 7.0 0.00 0.00 0.00 66 1009.6
20240304051645 40 216 1.7 2.6 0.00 0.00 0.00 66 1009.7
20240304051145 40 212 1.7 4.3 0.00 0.00 0.00 66 1009.5
20240304050645 41 239 2.6 2.6 0.00 0.00 0.00 67 1009.5
20240304050145 41 243 1.7 4.3 0.00 0.00 0.00 67 1009.5
20240304045645 41 230 1.7 6.1 0.00 0.00 0.00 67 1009.3
20240304045145 41 259 1.7 7.0 0.00 0.00 0.00 68 1009.4
20240304044645 41 238 3.5 6.1 0.00 0.00 0.00 68 1009.5
20240304043645 41 231 2.6 4.3 0.00 0.00 0.00 69 1009.2
20240304043145 42 235 1.7 4.3 0.00 0.00 0.00 69 1008.9
20240304042145 42 248 1.7 2.6 0.00 0.00 0.00 69 1008.4
20240304041145 42 235 2.6 6.1 0.00 0.00 0.00 69 1008.6
20240304040645 42 235 2.6 6.1 0.00 0.00 0.00 69 1008.6
20240304040145 42 236 2.6 2.6 0.00 0.00 0.00 68 1008.1
20240304035645 42 213 0.9 2.6 0.00 0.00 0.00 68 1007.5
20240304034645 43 242 1.7 6.1 0.00 0.00 0.00 69 1007.3
20240304033645 43 256 2.6 8.7 0.00 0.00 0.00 70 1007.2
20240304033145 43 223 4.3 7.0 0.00 0.00 0.00 71 1007.2
20240304032646 43 238 2.6 7.8 0.00 0.00 0.00 71 1007.1
20240304032146 43 250 1.7 4.3 0.00 0.00 0.00 71 1007.2
20240304031645 43 252 1.7 8.7 0.00 0.00 0.00 71 1007.2
20240304031145 43 238 1.7 4.3 0.00 0.00 0.00 71 1007.2
20240304030646 43 264 2.6 4.3 0.00 0.00 0.00 71 1007.1
20240304030145 43 219 1.7 4.3 0.00 0.00 0.00 71 1007.0
20240304025645 43 207 2.6 4.3 0.00 0.00 0.00 70 1006.8
20240304025146 43 248 1.7 2.6 0.00 0.00 0.00 70 1006.8
20240304024645 43 271 1.7 2.6 0.00 0.00 0.00 70 1006.7
20240304024145 43 243 2.6 6.1 0.00 0.00 0.00 69 1006.7
20240304023645 44 246 2.6 6.1 0.00 0.00 0.00 69 1006.6
20240304023145 44 232 2.6 5.2 0.00 0.00 0.00 69 1006.5
20240304022645 44 230 2.6 5.2 0.00 0.00 0.00 68 1006.5
20240304022145 44 254 2.6 7.0 0.00 0.00 0.00 68 1006.4
20240304021645 44 259 4.3 7.8 0.00 0.00 0.00 67 1006.2
20240304021145 44 233 5.2 8.7 0.00 0.00 0.00 67 1006.0
20240304020645 44 258 4.3 8.7 0.00 0.00 0.00 67 1005.9
20240304015146 45 263 6.1 13.9 0.00 0.00 0.00 67 1005.4
20240304014645 45 268 7.8 13.9 0.00 0.00 0.00 66 1005.2
20240304014145 45 254 5.2 13.9 0.00 0.00 0.00 66 1005.2
20240304013645 45 276 4.3 17.4 0.00 0.00 0.00 66 1005.0
20240304013145 45 276 11.3 20.9 0.00 0.00 0.00 65 1004.8
20240304012645 46 256 7.8 14.8 0.00 0.00 0.00 65 1004.7
20240304012146 46 260 8.7 17.4 0.00 0.00 0.00 65 1004.6
20240304011145 47 255 11.3 19.1 0.00 0.00 0.00 64 1004.3
20240304010646 47 269 12.2 24.3 0.00 0.00 0.00 64 1004.0
20240304010145 47 262 8.7 14.8 0.00 0.00 0.00 66 1003.8
20240304005645 48 260 8.7 17.4 0.00 0.00 0.00 66 1003.3
20240304005145 48 260 10.4 18.2 0.00 0.00 0.00 66 1002.8
20240304004645 48 255 7.0 17.4 0.00 0.00 0.00 67 1002.6
20240304004145 48 247 6.1 17.4 0.00 0.00 0.00 68 1002.7
20240304003645 48 249 7.0 13.0 0.00 0.00 0.00 68 1002.3
20240304003146 48 248 5.2 18.2 0.00 0.00 0.00 69 1002.0
20240304002646 48 250 6.1 14.8 0.00 0.00 0.00 69 1001.7
20240304002146 48 256 7.8 13.0 0.00 0.00 0.00 69 1001.5
20240304001646 48 259 12.2 21.7 0.00 0.00 0.00 69 1001.3
20240304001146 49 262 9.6 15.6 0.00 0.00 0.00 69 1000.9
20240304000646 49 260 8.7 19.1 0.00 0.00 0.00 68 1000.8
20240304000146 49 245 10.4 18.2 0.00 0.00 0.00 68 1000.6
20240303235646 50 248 12.2 25.2 0.00 0.00 0.00 67 1000.3
20240303235145 51 255 8.7 17.4 0.00 0.00 0.00 67 999.9
20240303234646 51 262 8.7 20.0 0.00 0.00 0.00 67 999.4
20240303234146 52 245 8.7 18.2 0.00 0.00 0.00 66 999.2
20240303233646 52 243 9.6 17.4 0.00 0.00 0.00 66 998.7
20240303233147 53 256 12.2 19.1 0.00 0.00 0.00 65 998.5
20240303232646 54 260 10.4 26.9 0.00 0.00 0.00 65 998.3
20240303232146 54 244 6.1 13.0 0.00 0.00 0.00 64 997.9
20240303231646 54 241 7.8 13.0 0.00 0.00 0.00 64 997.4
20240303231145 55 252 7.0 13.0 0.00 0.00 0.00 63 997.2
20240303230646 55 242 7.8 13.9 0.00 0.00 0.00 62 996.8
20240303230145 56 232 10.4 17.4 0.00 0.00 0.00 61 996.5
20240303225145 57 246 5.2 11.3 0.00 0.00 0.00 59 995.8
20240303224645 58 248 5.2 17.4 0.00 0.00 0.00 58 995.8
20240303224146 59 265 7.0 19.1 0.00 0.00 0.00 56 995.6
20240303223646 60 262 6.1 14.8 0.00 0.00 0.00 54 995.2
20240303223146 61 237 5.2 15.6 0.00 0.00 0.00 53 995.0
20240303222646 62 249 10.4 17.4 0.00 0.00 0.00 51 994.8
20240303222146 63 265 7.8 13.9 0.00 0.00 0.00 49 994.5
20240303221647 64 253 10.4 17.4 0.00 0.00 0.00 47 994.2
20240303220646 66 252 11.3 18.2 0.00 0.00 0.00 41 993.8
20240303220147 67 260 10.4 18.2 0.00 0.00 0.00 38 993.6
20240303215646 68 237 8.7 15.6 0.00 0.00 0.00 35 993.3
20240303214646 69 220 7.8 17.4 0.00 0.00 0.00 32 992.9
20240303214146 70 241 9.6 24.3 0.00 0.00 0.00 32 992.7
20240303213646 71 235 9.6 17.4 0.00 0.00 0.00 30 992.4
20240303213146 72 241 10.4 19.1 0.00 0.00 0.00 29 992.2
20240303212646 73 245 7.8 20.9 0.00 0.00 0.00 30 992.0
20240303212146 73 218 11.3 34.8 0.00 0.00 0.00 31 991.7
20240303211646 73 207 7.8 21.7 0.00 0.00 0.00 37 991.6
20240303211146 72 186 7.8 22.6 0.00 0.00 0.00 38 991.3
20240303210645 72 184 7.8 18.2 0.00 0.00 0.00 37 991.3
20240303210146 72 170 12.2 22.6 0.00 0.00 0.00 38 991.3
20240303205646 72 197 13.9 24.3 0.00 0.00 0.00 41 991.1
20240303205146 71 173 7.8 13.9 0.00 0.00 0.00 44 991.1
20240303204646 71 183 9.6 20.9 0.00 0.00 0.00 45 991.1
20240303203646 70 135 6.1 20.0 0.00 0.00 0.00 47 991.1
20240303203146 70 165 7.0 21.7 0.00 0.00 0.00 48 991.2
20240303202646 70 131 4.3 8.7 0.00 0.00 0.00 49 991.2
20240303202146 69 124 4.3 11.3 0.00 0.00 0.00 50 991.4
20240303201646 69 132 5.2 11.3 0.00 0.00 0.00 52 991.5
20240303201146 68 154 5.2 12.2 0.00 0.00 0.00 53 991.7
20240303200646 68 137 5.2 7.8 0.00 0.00 0.00 55 991.7
20240303200146 68 133 5.2 11.3 0.00 0.00 0.00 56 991.9
20240303195646 68 130 5.2 11.3 0.00 0.00 0.00 56 991.9
20240303195146 67 130 9.6 17.4 0.00 0.00 0.00 56 992.0
20240303194647 67 137 8.7 14.8 0.00 0.00 0.00 56 992.1
20240303194146 67 122 7.0 14.8 0.00 0.00 0.00 56 992.3
20240303193646 67 150 7.0 19.1 0.00 0.00 0.00 56 992.5
20240303192146 66 137 6.1 13.0 0.00 0.00 0.00 58 992.7
20240303191646 66 130 6.1 12.2 0.00 0.00 0.00 58 992.8
20240303191147 66 141 9.6 18.2 0.00 0.00 0.00 57 992.9
20240303190646 65 145 7.8 13.9 0.00 0.00 0.00 57 993.0
20240303185646 65 141 5.2 11.3 0.00 0.00 0.00 59 993.1
20240303185146 65 141 7.8 20.0 0.00 0.00 0.00 59 993.3
20240303184646 65 144 6.1 14.8 0.00 0.00 0.00 60 993.5
20240303184146 65 135 7.0 18.2 0.00 0.00 0.00 60 993.5
20240303183646 65 165 5.2 15.6 0.00 0.00 0.00 60 993.6
20240303183146 64 138 7.8 12.2 0.00 0.00 0.00 60 993.7
20240303182646 64 138 7.8 14.8 0.00 0.00 0.00 60 993.8
20240303182146 64 140 7.0 22.6 0.00 0.00 0.00 62 993.8
20240303181646 63 124 7.8 18.2 0.00 0.00 0.00 64 994.0
20240303181146 63 132 7.8 15.6 0.00 0.00 0.00 65 994.0
20240303180646 62 122 7.0 15.6 0.00 0.00 0.00 66 994.0
20240303180146 62 133 10.4 15.6 0.00 0.00 0.00 66 994.1
20240303175646 62 140 3.5 10.4 0.00 0.00 0.00 67 994.3
20240303175146 61 121 5.2 11.3 0.00 0.00 0.00 68 994.5
20240303174146 61 134 6.1 11.3 0.00 0.00 0.00 68 994.6
20240303173646 61 123 7.8 13.9 0.00 0.00 0.00 68 994.7
20240303172146 61 137 7.0 10.4 0.00 0.00 0.00 68 995.0
20240303171646 60 139 8.7 17.4 0.00 0.00 0.00 68 995.0
20240303171147 60 134 7.8 13.9 0.00 0.00 0.00 69 995.2
20240303170646 60 151 5.2 13.0 0.00 0.00 0.00 70 995.3
20240303170146 60 124 7.8 18.2 0.00 0.00 0.00 70 995.5
20240303165148 59 128 7.0 12.2 0.00 0.00 0.00 71 995.9
20240303164146 58 125 7.8 13.0 0.00 0.00 0.00 73 996.0
20240303163646 57 139 8.7 17.4 0.00 0.00 0.00 72 996.2
20240303162646 57 135 6.1 17.4 0.00 0.00 0.00 73 996.5
20240303162146 57 137 7.8 13.0 0.00 0.00 0.00 73 996.6
20240303161646 56 133 8.7 13.0 0.00 0.00 0.00 73 996.7
20240303161147 56 136 5.2 10.4 0.00 0.00 0.00 74 996.8
20240303160146 55 125 9.6 17.4 0.00 0.00 0.00 76 996.7
20240303155647 54 119 9.6 15.6 0.00 0.00 0.00 76 996.8
20240303154647 54 141 8.7 13.0 0.00 0.00 0.00 77 996.9
20240303154146 53 141 5.2 10.4 0.00 0.00 0.00 78 996.9
20240303153647 53 112 5.2 12.2 0.00 0.00 0.00 78 997.0
20240303153147 52 121 6.1 12.2 0.00 0.00 0.00 78 997.0
20240303152647 52 121 7.0 13.0 0.00 0.00 0.00 79 997.2
20240303152146 52 116 6.1 13.0 0.00 0.00 0.00 79 997.5
20240303151646 51 119 5.2 12.2 0.00 0.00 0.00 80 997.6
20240303151147 51 123 6.1 10.4 0.00 0.00 0.00 80 997.7
20240303150646 50 102 6.1 10.4 0.00 0.00 0.00 80 997.8
20240303150146 50 114 7.8 12.2 0.00 0.00 0.00 81 997.9
20240303145646 50 103 7.8 12.2 0.00 0.00 0.00 80 998.0
20240303145147 50 123 7.0 15.6 0.00 0.00 0.00 81 998.0
20240303144647 49 104 5.2 8.7 0.00 0.00 0.00 81 998.2
20240303144147 49 128 7.8 12.2 0.00 0.00 0.00 81 998.3
20240303143646 49 91 6.1 10.4 0.00 0.00 0.00 81 998.3
20240303143147 49 114 5.2 10.4 0.00 0.00 0.00 82 998.5
20240303142646 48 94 6.1 10.4 0.00 0.00 0.00 82 998.6
20240303142146 48 110 5.2 11.3 0.00 0.00 0.00 82 998.6
20240303141647 48 105 5.2 10.4 0.00 0.00 0.00 82 998.7
20240303141146 48 121 5.2 10.4 0.00 0.00 0.00 83 998.8
20240303135647 47 107 4.3 8.7 0.00 0.00 0.00 83 999.1
20240303135147 47 109 6.1 10.4 0.00 0.00 0.00 83 999.1
20240303134646 47 97 5.2 8.7 0.00 0.00 0.00 83 999.2
20240303134147 47 119 6.1 12.2 0.00 0.00 0.00 83 999.2
20240303133647 46 99 4.3 7.8 0.00 0.00 0.00 83 999.3
20240303133147 46 111 6.1 10.4 0.00 0.00 0.00 83 999.4
20240303132147 46 114 6.1 13.0 0.00 0.00 0.00 83 999.6
20240303131646 46 121 9.6 12.2 0.00 0.00 0.00 83 999.6
20240303131146 46 111 7.8 12.2 0.00 0.00 0.00 83 999.5
20240303130647 46 114 5.2 15.6 0.00 0.00 0.00 83 999.7
20240303130147 46 115 7.0 10.4 0.00 0.00 0.00 83 999.7
20240303125647 46 111 5.2 10.4 0.00 0.00 0.00 82 999.8
20240303125147 46 104 6.1 11.3 0.00 0.00 0.00 82 999.9
20240303124148 46 119 7.0 13.9 0.00 0.00 0.00 82 1000.0
20240303123147 46 110 6.1 12.2 0.00 0.00 0.00 82 1000.1
20240303122147 46 113 6.1 12.2 0.00 0.00 0.00 82 1000.2
20240303121646 46 122 6.1 13.0 0.00 0.00 0.00 81 1000.3
20240303120647 46 125 6.1 13.9 0.00 0.00 0.00 80 1000.4
20240303120147 46 122 7.8 13.9 0.00 0.00 0.00 80 1000.5
20240303115648 46 108 6.1 10.4 0.00 0.00 0.00 80 1000.5
20240303115147 46 113 6.1 12.2 0.00 0.00 0.00 80 1000.6
20240303114646 46 107 7.0 13.0 0.00 0.00 0.00 80 1000.7
20240303114147 46 111 7.0 13.9 0.00 0.00 0.00 79 1000.8
20240303113647 46 116 7.8 13.0 0.00 0.00 0.00 79 1000.9
20240303113147 46 115 7.0 11.3 0.00 0.00 0.00 79 1001.0
20240303112647 47 101 6.1 12.2 0.00 0.00 0.00 79 1001.2
20240303112148 47 92 4.3 12.2 0.00 0.00 0.00 79 1001.2
20240303111147 47 111 6.1 10.4 0.00 0.00 0.00 78 1001.3
20240303110647 47 99 5.2 10.4 0.00 0.00 0.00 78 1001.3
20240303110147 47 109 4.3 10.4 0.00 0.00 0.00 78 1001.4
20240303105647 47 99 5.2 10.4 0.00 0.00 0.00 77 1001.5
20240303105147 47 109 6.1 10.4 0.00 0.00 0.00 77 1001.4
20240303104647 47 103 4.3 10.4 0.00 0.00 0.00 77 1001.4
20240303104147 47 102 5.2 8.7 0.00 0.00 0.00 77 1001.5
20240303103647 47 107 6.1 8.7 0.00 0.00 0.00 76 1001.5
20240303103147 47 98 5.2 11.3 0.00 0.00 0.00 76 1001.6
20240303102647 47 123 5.2 8.7 0.00 0.00 0.00 76 1001.7
20240303102147 47 117 6.1 11.3 0.00 0.00 0.00 76 1001.7
20240303101646 47 114 3.5 10.4 0.00 0.00 0.00 76 1001.8
20240303101147 47 98 5.2 8.7 0.00 0.00 0.00 76 1001.8
20240303100147 47 113 3.5 8.7 0.00 0.00 0.00 76 1002.0
20240303095647 47 109 3.5 6.1 0.00 0.00 0.00 76 1002.1
20240303095147 47 97 2.6 6.1 0.00 0.00 0.00 76 1002.1
20240303094647 47 103 1.7 5.2 0.00 0.00 0.00 75 1002.2
20240303093647 47 92 1.7 2.6 0.00 0.00 0.00 74 1002.5
20240303093147 47 89 1.7 2.6 0.00 0.00 0.00 74 1002.5
20240303092647 47 85 2.6 2.6 0.00 0.00 0.00 73 1002.5
20240303092148 47 107 2.6 7.0 0.00 0.00 0.00 73 1002.6
20240303090148 48 103 4.3 7.8 0.00 0.00 0.00 72 1002.9
20240303085647 48 106 4.3 7.8 0.00 0.00 0.00 72 1003.0
20240303085147 48 107 4.3 7.0 0.00 0.00 0.00 71 1003.0
20240303084647 49 114 2.6 7.0 0.00 0.00 0.00 70 1003.1
20240303084147 49 96 2.6 7.0 0.00 0.00 0.00 70 1003.2
20240303083647 49 110 1.7 7.0 0.00 0.00 0.00 69 1003.3
20240303083147 50 113 3.5 7.0 0.00 0.00 0.00 69 1003.3
20240303082147 50 107 1.7 5.2 0.00 0.00 0.00 68 1003.6
20240303081647 50 98 2.6 7.8 0.00 0.00 0.00 68 1003.7
20240303081147 50 111 4.3 7.0 0.00 0.00 0.00 68 1003.8
20240303080145 51 133 4.3 6.1 0.00 0.00 0.00 68 1004.0
20240303075148 51 128 2.6 7.0 0.00 0.00 0.00 67 1004.1
20240303074648 51 124 2.6 7.0 0.00 0.00 0.00 67 1004.1
20240303074148 51 114 2.6 7.0 0.00 0.00 0.00 67 1004.1
20240303073649 51 132 4.3 10.4 0.00 0.00 0.00 67 1004.2
20240303073149 51 126 5.2 10.4 0.00 0.00 0.00 66 1004.2
20240303072649 51 130 4.3 7.8 0.00 0.00 0.00 66 1004.3
20240303072149 51 127 2.6 6.1 0.00 0.00 0.00 66 1004.4
20240303071649 51 122 4.3 10.4 0.00 0.00 0.00 66 1004.5
20240303071149 51 135 4.3 11.3 0.00 0.00 0.00 66 1004.5
20240303070650 51 112 5.2 10.4 0.00 0.00 0.00 66 1004.5
20240303065649 51 129 4.3 10.4 0.00 0.00 0.00 65 1004.6
20240303065148 51 123 4.3 8.7 0.00 0.00 0.00 65 1004.6
20240303064649 51 134 5.2 13.9 0.00 0.00 0.00 65 1004.6
20240303064149 51 133 5.2 8.7 0.00 0.00 0.00 65 1004.7
20240303063649 52 127 4.3 10.4 0.00 0.00 0.00 65 1004.7
20240303063149 52 123 6.1 10.4 0.00 0.00 0.00 65 1004.8
20240303062648 52 138 4.3 7.0 0.00 0.00 0.00 65 1004.8
20240303062149 52 125 4.3 7.8 0.00 0.00 0.00 64 1004.8
20240303061652 52 140 4.3 10.4 0.00 0.00 0.00 64 1004.8
20240303061148 52 113 3.5 8.7 0.00 0.00 0.00 64 1004.8
20240303060649 52 126 4.3 7.8 0.00 0.00 0.00 64 1004.8